Weather in Kirovskoye

Russia / Kamchatka Krai     54°13′45″N   155°48′35″E
temp.,
°C
wind,
m/s
gust,
m/s
humid.,
%
clouds,
%
prec.,
mm/h
press.,
hPa
HPBL,
m
28 february, sun
sun2800:00−12n569287 0.0 1010117
03:00−14n45870 0.0 100994
06:00−13n578740 0.0 1008123
09:00−13n4685100 0.0 1008124
12:00−9nnw5681100 0.0 1006238
15:00−7nnw5783100 0.0 1004359
18:00−7nnw5791100 0.1 1001349
21:00−7nnw4695100 0.2 1001227
1 march, mon
mon100:00−7nw4693100 0.6 999261
03:00−6wnw5990100 0.6 998495
06:00−6wnw5791100 0.9 998290
09:00−9nnw3494100 0.1 99895
12:00−7nnw3590100 0.3 999436
15:00−8wnw3590100 0.1 998410
18:00−9nnw3492100 0.4 1000359
21:00−11nne3495100 0.3 1003124
2 march, tue
tue200:00−14nne3496100 0.3 1005112
03:00−15ne3498100 0.1 1008126
06:00−15ene3396100 0.1 101182
09:00−13se3496100 0.5 1015151
12:00−6w81177100 1.3 10171244
15:00−7wsw81074100 0.3 10191321
18:00−8wsw7972100 0.5 1022643
21:00−9sw587799 0.2 1026472
3 march, wed
wed300:00−10ssw357599 0.3 1027380
03:00−12se4688100 0.0 1024168
06:00−11ene4684100 0.1 1019174
09:00−11nne91295100 1.7 1011408
12:00−8ne7995100 6.3 1001341
15:00−6ne6896100 15.0 990168
18:00+1se152696100 25.1 981930
21:00+1se132592100 5.1 972850
4 march, thu
thu400:00−4w232792100 6.6 9751064
03:00−8w162083100 0.9 9881537
06:00−10w161978100 1.3 9961483
09:00−11w141980100 0.3 10011629
12:00−10w141881100 0.6 10042124
15:00−8wsw131776100 0.3 10052079
18:00−6sw91394100 1.3 1003888
21:00−4sw141982100 1.8 10011207